Upstream stations:
Downstream station:
SHEF ID: BXTK1 SPRING R NR BAXTER SPRINGS, KS
STATION TYPE:
PRECIP STAGE RIV-FLOW BAT-LOAD
in ft cfs volt
Ccp-Rev Ccp-Rev Ccp-Rev Ccp-Rev
(US/Central)
04/04 00:00 0.06 4.23 2127 12.83
04/04 01:00 0.07 4.24 2149 12.77
04/04 02:00 0.11 4.25 2172 12.71
04/04 03:00 0.16 4.26 2195 12.71
04/04 04:00 0.04 4.26 2195 12.71
04/04 05:00 0.00 4.26 2195 12.65
04/04 06:00 0.00 4.26 2195 12.65
04/04 07:00 0.01 4.25 2172 12.65
04/04 08:00 0.00 4.25 2172 12.65
04/04 09:00 0.00 4.26 2195 12.71
04/04 10:00 0.00 4.28 2241 13.71
04/04 11:00 0.00 4.29 2264 13.83
04/04 12:00 0.00 4.29 2264 14.47
04/04 13:00 0.00 4.30 2287 14.18
04/04 14:00 0.00 4.30 2287 14.30
04/04 15:00 0.00 4.30 2287 13.65
04/04 16:00 0.00 4.30 2287 13.94
04/04 17:00 0.00 4.30 2287 13.83
04/04 18:00 0.00 4.31 2310 13.00
04/04 19:00 0.00 4.30 2287 12.89
04/04 20:00 0.04 4.31 2310 12.83
04/04 21:00 0.05 4.31 2310 12.83
04/04 22:00 0.00 4.32 2334 12.83
04/04 23:00 ---- ---- ---- ----